Tracking 30995 objects as of 5-Jul-2025
HD Live streaming from Space Station
objects crossing your sky now

COSMOS 2251 DEB

Track COSMOS 2251 DEB now!
10-day predictions


NORAD ID: 34476
Int'l Code: 1993-036TV
Perigee: 741.4 km
Apogee: 1,199.1 km
Inclination: 74.0 °
Period: 104.3 minutes
Semi major axis: 7341 km
RCS: 0.0374 m2 (small)
Launch date: June 16, 1993
Source: Commonwealth of Independent States (former USSR) (CIS)
Launch site: PLESETSK MISSILE AND SPACE COMPLEX (PKMTR)

Note: This is SATELLITE DEBRIS
Your satellite tracking list
Your tracking list is empty




NASA's NSSDC Master Catalog

Two Line Element Set (TLE):
1 34476U 93036TV  25186.52425733  .00003401  00000-0  22782-2 0  9999
2 34476  74.0112 352.0224 0311762 245.4676 111.3657 13.80215581814251
Source of the keplerian elements: AFSPC